Location: Bonningues
(50.7927°N, 2.0150°E)
Time: 02:23:35
(UTC+00:00)

Cosmos 1242 Rocket - Pass Details

Date: 08 August 2020
Orbit: 448 x 486 km, 81.2° (Epoch: 25 September)

Event Time Altitude Azimuth Distance (km) Brightness Sun altitude
Rises 22:05:21 0° 358° (N) 2,529 7.3 -19.0°
Reaches altitude 10° 22:07:46 10° 13° (NNE) 1,653 5.9 -19.2°
Maximum altitude 22:10:42 23° 67° (ENE) 1,067 4.2 -19.4°
Enters shadow 22:11:03 23° 77° (ENE) 1,079 4.1 -19.4°
